NSZ2067 LKPR-EKCH

Flight info

Callsign NSZ2067
Flight time 0h 55m
Altitude 38000
Route VENOX DCT DEKOV Y621 GARKI DCT POGAB DCT BAKDO DCT KOSEB T298 MONAK
Aircraft B738/M-SDE2E3FGHIRWXY/LB1

Departure

Time 2026-05-06 17:19
Airport Václav Havel Airport Prague (LKPR)

Arrival

Time 2026-05-06 18:15
Airport Copenhagen Kastrup Airport (EKCH)
Time Latitude Longitude Altitude Speed Heading
2026-05-06 16:53 50.10903 14.26648 1173 ft 0 kts 214°
2026-05-06 17:07 50.10904 14.26649 1173 ft 1 kts 214°
2026-05-06 17:07 50.10917 14.26664 1173 ft 3 kts 221°
2026-05-06 17:08 50.10930 14.26685 1172 ft 3 kts 250°
2026-05-06 17:08 50.10932 14.26704 1171 ft 2 kts 313°
2026-05-06 17:08 50.10929 14.26709 1173 ft 0 kts 319°
2026-05-06 17:11 50.10941 14.26693 1173 ft 4 kts 319°
2026-05-06 17:11 50.10980 14.26652 1169 ft 11 kts 329°
2026-05-06 17:12 50.11043 14.26568 1173 ft 12 kts 289°
2026-05-06 17:12 50.10998 14.26464 1171 ft 11 kts 214°
2026-05-06 17:12 50.10933 14.26392 1170 ft 12 kts 214°
2026-05-06 17:12 50.10853 14.26306 1173 ft 18 kts 214°
2026-05-06 17:13 50.10732 14.26178 1173 ft 24 kts 214°
2026-05-06 17:13 50.10590 14.26028 1171 ft 20 kts 214°
2026-05-06 17:13 50.10488 14.26001 1171 ft 16 kts 133°
2026-05-06 17:13 50.10421 14.26138 1172 ft 17 kts 126°
2026-05-06 17:14 50.10335 14.26318 1173 ft 24 kts 127°
2026-05-06 17:14 50.10226 14.26542 1177 ft 27 kts 127°
2026-05-06 17:14 50.10115 14.26771 1182 ft 26 kts 127°
2026-05-06 17:14 50.10011 14.26985 1194 ft 24 kts 127°
2026-05-06 17:15 50.09914 14.27184 1200 ft 23 kts 127°
2026-05-06 17:15 50.09815 14.27370 1203 ft 22 kts 135°
2026-05-06 17:15 50.09707 14.27535 1205 ft 21 kts 136°
2026-05-06 17:15 50.09603 14.27696 1209 ft 21 kts 135°
2026-05-06 17:16 50.09501 14.27852 1213 ft 20 kts 136°
2026-05-06 17:16 50.09403 14.28003 1214 ft 20 kts 135°
2026-05-06 17:16 50.09308 14.28150 1214 ft 19 kts 135°
2026-05-06 17:16 50.09229 14.28266 1211 ft 11 kts 146°
2026-05-06 17:17 50.09156 14.28270 1210 ft 12 kts 206°
2026-05-06 17:17 50.09086 14.28157 1208 ft 19 kts 252°
2026-05-06 17:17 50.09111 14.28032 1208 ft 4 kts 307°
2026-05-06 17:17 50.09112 14.28030 1208 ft 0 kts 307°
2026-05-06 17:18 50.09119 14.28016 1209 ft 3 kts 307°
2026-05-06 17:18 50.09122 14.28011 1209 ft 0 kts 307°
2026-05-06 17:18 50.09130 14.27993 1209 ft 10 kts 309°
2026-05-06 17:19 50.09321 14.27596 1211 ft 83 kts 307°
2026-05-06 17:19 50.09806 14.26592 1204 ft 147 kts 307°
2026-05-06 17:19 50.10257 14.25658 1292 ft 173 kts 307°
2026-05-06 17:19 50.11191 14.23658 2402 ft 169 kts 304°
2026-05-06 17:20 50.11641 14.22629 2832 ft 178 kts 303°
2026-05-06 17:20 50.12378 14.20927 3268 ft 205 kts 309°
2026-05-06 17:20 50.13334 14.19039 3494 ft 231 kts 310°
2026-05-06 17:20 50.14362 14.17013 3739 ft 251 kts 309°
2026-05-06 17:21 50.15490 14.14754 4080 ft 274 kts 308°
2026-05-06 17:21 50.16657 14.12370 4746 ft 277 kts 307°
2026-05-06 17:21 50.17823 14.09962 4962 ft 278 kts 307°
2026-05-06 17:21 50.18991 14.07535 4989 ft 281 kts 307°
2026-05-06 17:22 50.20156 14.05099 4999 ft 280 kts 306°
2026-05-06 17:22 50.21484 14.02894 5069 ft 283 kts 330°
2026-05-06 17:22 50.23376 14.02161 5818 ft 282 kts
2026-05-06 17:22 50.25313 14.02573 6700 ft 281 kts 12°
2026-05-06 17:23 50.27247 14.03253 7445 ft 288 kts 14°
2026-05-06 17:23 50.29200 14.03985 8305 ft 289 kts 14°
2026-05-06 17:23 50.31085 14.04702 9032 ft 293 kts 15°
2026-05-06 17:23 50.33096 14.05460 9681 ft 301 kts 14°
2026-05-06 17:24 50.35175 14.06212 10179 ft 316 kts 13°
2026-05-06 17:24 50.37404 14.07005 10361 ft 340 kts 12°
2026-05-06 17:24 50.39802 14.07515 10678 ft 356 kts 359°
2026-05-06 17:24 50.42300 14.07309 11315 ft 361 kts 355°
2026-05-06 17:25 50.44730 14.07054 12001 ft 365 kts 354°
2026-05-06 17:25 50.47380 14.06795 12707 ft 371 kts 354°
2026-05-06 17:25 50.49971 14.06563 13451 ft 374 kts 355°
2026-05-06 17:25 50.52540 14.06346 14223 ft 377 kts 354°
2026-05-06 17:26 50.55178 14.06138 14921 ft 382 kts 354°
2026-05-06 17:26 50.57844 14.05931 15539 ft 385 kts 352°
2026-05-06 17:26 50.60421 14.05374 15789 ft 385 kts 346°
2026-05-06 17:26 50.63147 14.04548 16402 ft 389 kts 345°
2026-05-06 17:27 50.65801 14.03702 17105 ft 390 kts 345°
2026-05-06 17:27 50.68474 14.02848 17791 ft 394 kts 345°
2026-05-06 17:27 50.71174 14.01997 18430 ft 399 kts 345°
2026-05-06 17:27 50.73914 14.01138 19097 ft 402 kts 345°
2026-05-06 17:28 50.76670 14.00286 19669 ft 406 kts 345°
2026-05-06 17:28 50.79467 13.99437 20195 ft 412 kts 345°
2026-05-06 17:28 50.82288 13.98571 20855 ft 413 kts 345°
2026-05-06 17:28 50.85122 13.97709 21419 ft 417 kts 345°
2026-05-06 17:29 50.87993 13.96844 21939 ft 421 kts 345°
2026-05-06 17:29 50.90881 13.95979 22474 ft 424 kts 345°
2026-05-06 17:29 50.93820 13.95280 22974 ft 432 kts 353°
2026-05-06 17:29 50.96850 13.95245 23479 ft 438 kts 357°
2026-05-06 17:30 50.99910 13.95396 23968 ft 442 kts 358°
2026-05-06 17:30 51.02995 13.95586 24445 ft 445 kts 358°
2026-05-06 17:30 51.06098 13.95769 24900 ft 448 kts 358°
2026-05-06 17:30 51.09184 13.95926 25309 ft 452 kts 358°
2026-05-06 17:31 51.12334 13.96060 25712 ft 454 kts 357°
2026-05-06 17:31 51.15505 13.96174 26076 ft 458 kts 357°
2026-05-06 17:31 51.18697 13.96282 26468 ft 460 kts 357°
2026-05-06 17:31 51.21911 13.96384 26842 ft 463 kts 356°
2026-05-06 17:32 51.25140 13.96484 27199 ft 466 kts 357°
2026-05-06 17:32 51.28391 13.96591 27537 ft 469 kts 356°
2026-05-06 17:32 51.31671 13.96694 27915 ft 472 kts 356°
2026-05-06 17:32 51.34954 13.96798 28289 ft 473 kts 356°
2026-05-06 17:33 51.38264 13.96902 28577 ft 477 kts 356°
2026-05-06 17:33 51.41594 13.97005 28854 ft 481 kts 356°
2026-05-06 17:33 51.44952 13.97111 29177 ft 483 kts 356°
2026-05-06 17:33 51.48319 13.97220 29492 ft 485 kts 356°
2026-05-06 17:34 51.51705 13.97330 29771 ft 488 kts 356°
2026-05-06 17:34 51.55105 13.97439 30051 ft 491 kts 356°
2026-05-06 17:34 51.58530 13.97550 30353 ft 492 kts 356°
2026-05-06 17:34 51.61961 13.97662 30660 ft 494 kts 356°
2026-05-06 17:35 51.65402 13.97774 31014 ft 493 kts 356°
2026-05-06 17:35 51.68821 13.97894 31386 ft 491 kts 356°
2026-05-06 17:35 51.72195 13.98004 31753 ft 490 kts 356°
2026-05-06 17:36 51.78998 13.98213 32561 ft 487 kts 355°
2026-05-06 17:36 51.82388 13.98313 32872 ft 486 kts 354°
2026-05-06 17:36 51.85736 13.97951 33143 ft 479 kts 345°
2026-05-06 17:36 51.88946 13.96785 33494 ft 471 kts 339°
2026-05-06 17:37 51.92101 13.95416 33835 ft 469 kts 338°
2026-05-06 17:37 51.95246 13.94016 34155 ft 468 kts 338°
2026-05-06 17:37 51.98385 13.92618 34468 ft 468 kts 338°
2026-05-06 17:37 52.01525 13.91233 34776 ft 466 kts 338°
2026-05-06 17:38 52.04659 13.89867 35018 ft 467 kts 339°
2026-05-06 17:38 52.07806 13.88511 35256 ft 468 kts 339°
2026-05-06 17:38 52.10959 13.87167 35551 ft 468 kts 339°
2026-05-06 17:38 52.14105 13.85830 35888 ft 466 kts 339°
2026-05-06 17:39 52.17244 13.84492 36161 ft 465 kts 339°
2026-05-06 17:39 52.20378 13.83152 36367 ft 466 kts 339°
2026-05-06 17:39 52.23479 13.81822 36554 ft 467 kts 340°
2026-05-06 17:39 52.26621 13.80470 36797 ft 466 kts 340°
2026-05-06 17:40 52.29754 13.79127 37099 ft 464 kts 340°
2026-05-06 17:40 52.32870 13.77786 37411 ft 462 kts 340°
2026-05-06 17:40 52.35964 13.76452 37679 ft 460 kts 340°
2026-05-06 17:40 52.39058 13.75114 37834 ft 461 kts 340°
2026-05-06 17:41 52.45294 13.72422 37818 ft 464 kts 340°
2026-05-06 17:41 52.51487 13.69704 37822 ft 457 kts 340°
2026-05-06 17:42 52.57617 13.67042 37835 ft 455 kts 340°
2026-05-06 17:42 52.63719 13.64384 37835 ft 453 kts 340°
2026-05-06 17:43 52.69804 13.61712 37835 ft 452 kts 340°
2026-05-06 17:43 52.75877 13.59046 37831 ft 452 kts 340°
2026-05-06 17:44 52.81954 13.56385 37831 ft 453 kts 340°
2026-05-06 17:44 52.88024 13.53705 37845 ft 456 kts 340°
2026-05-06 17:45 52.94173 13.50969 37846 ft 458 kts 340°
2026-05-06 17:45 53.00350 13.48220 37847 ft 461 kts 340°
2026-05-06 17:46 53.06559 13.45455 37838 ft 463 kts 341°
2026-05-06 17:46 53.12783 13.42672 37847 ft 463 kts 340°
2026-05-06 17:47 53.18995 13.39887 37844 ft 462 kts 340°
2026-05-06 17:47 53.25197 13.37097 37851 ft 461 kts 340°
2026-05-06 17:48 53.31369 13.34311 37849 ft 459 kts 340°
2026-05-06 17:48 53.37473 13.31541 37858 ft 456 kts 340°
2026-05-06 17:49 53.43592 13.28780 37871 ft 455 kts 340°
2026-05-06 17:49 53.49716 13.25995 37863 ft 455 kts 340°
2026-05-06 17:50 53.55820 13.23201 37868 ft 454 kts 340°
2026-05-06 17:50 53.61905 13.20430 37864 ft 452 kts 340°
2026-05-06 17:51 53.64963 13.19017 37420 ft 459 kts 340°
2026-05-06 17:51 53.68052 13.17587 36801 ft 461 kts 340°
2026-05-06 17:51 53.71136 13.16093 36188 ft 458 kts 338°
2026-05-06 17:51 53.74125 13.14289 35577 ft 455 kts 334°
2026-05-06 17:52 53.77062 13.12313 34956 ft 453 kts 333°
2026-05-06 17:52 53.79965 13.10286 34335 ft 452 kts 333°
2026-05-06 17:52 53.82875 13.08250 33720 ft 454 kts 333°
2026-05-06 17:52 53.85782 13.06263 33115 ft 457 kts 334°
2026-05-06 17:53 53.88757 13.04269 32507 ft 461 kts 335°
2026-05-06 17:53 53.91747 13.02277 31880 ft 462 kts 335°
2026-05-06 17:53 53.94734 13.00289 31263 ft 460 kts 336°
2026-05-06 17:53 53.97680 12.98328 30989 ft 447 kts 336°
2026-05-06 17:54 54.00569 12.96450 30728 ft 445 kts 337°
2026-05-06 17:54 54.03471 12.94540 30114 ft 448 kts 336°
2026-05-06 17:54 54.06335 12.92582 29653 ft 442 kts 336°
2026-05-06 17:54 54.09179 12.90629 29111 ft 438 kts 336°
2026-05-06 17:55 54.12010 12.88691 28371 ft 439 kts 336°
2026-05-06 17:55 54.14853 12.86743 27630 ft 441 kts 336°
2026-05-06 17:55 54.17696 12.84803 26891 ft 440 kts 336°
2026-05-06 17:55 54.20545 12.82860 26142 ft 441 kts 335°
2026-05-06 17:56 54.23383 12.80916 25666 ft 435 kts 335°
2026-05-06 17:56 54.26150 12.79033 25422 ft 422 kts 335°
2026-05-06 17:56 54.28844 12.77197 25158 ft 411 kts 335°
2026-05-06 17:56 54.31470 12.75405 24875 ft 402 kts 335°
2026-05-06 17:57 54.34059 12.73634 24419 ft 399 kts 335°
2026-05-06 17:57 54.36625 12.71869 23929 ft 396 kts 335°
2026-05-06 17:57 54.39169 12.70119 23452 ft 392 kts 335°
2026-05-06 17:57 54.41728 12.68684 23076 ft 391 kts 344°
2026-05-06 17:58 54.44399 12.67822 22845 ft 394 kts 347°
2026-05-06 17:58 54.47121 12.67003 22523 ft 394 kts 346°
2026-05-06 17:58 54.49798 12.66176 21750 ft 390 kts 346°
2026-05-06 17:58 54.52465 12.65343 20798 ft 389 kts 346°
2026-05-06 17:59 54.55132 12.64504 19827 ft 390 kts 346°
2026-05-06 17:59 54.57790 12.63666 19021 ft 386 kts 346°
2026-05-06 17:59 54.60409 12.62843 18256 ft 380 kts 346°
2026-05-06 17:59 54.62997 12.62031 17482 ft 375 kts 346°
2026-05-06 18:00 54.65549 12.61229 16727 ft 370 kts 347°
2026-05-06 18:00 54.68066 12.60438 15995 ft 365 kts 347°
2026-05-06 18:00 54.70542 12.59659 15253 ft 359 kts 347°
2026-05-06 18:00 54.72982 12.58890 14505 ft 355 kts 347°
2026-05-06 18:01 54.75393 12.58128 13782 ft 349 kts 348°
2026-05-06 18:01 54.77768 12.57378 13047 ft 343 kts 348°
2026-05-06 18:01 54.80067 12.56599 12274 ft 342 kts 347°
2026-05-06 18:01 54.82390 12.55873 11623 ft 332 kts 348°
2026-05-06 18:02 54.84667 12.55143 10876 ft 332 kts 349°
2026-05-06 18:02 54.86919 12.54445 10540 ft 321 kts 349°
2026-05-06 18:02 54.89080 12.53769 10380 ft 311 kts 349°
2026-05-06 18:02 54.91178 12.53103 10231 ft 301 kts 349°
2026-05-06 18:03 54.93209 12.52461 10102 ft 292 kts 349°
2026-05-06 18:03 54.95176 12.51835 9980 ft 282 kts 349°
2026-05-06 18:03 54.97082 12.51229 9757 ft 277 kts 350°
2026-05-06 18:03 54.98964 12.50632 9506 ft 271 kts 350°
2026-05-06 18:04 55.00812 12.50050 9227 ft 267 kts 351°
2026-05-06 18:04 55.02636 12.49472 9020 ft 266 kts 350°
2026-05-06 18:04 55.04464 12.48886 8985 ft 268 kts 351°
2026-05-06 18:04 55.06278 12.48302 8949 ft 261 kts 350°
2026-05-06 18:05 55.08038 12.47721 8930 ft 252 kts 351°
2026-05-06 18:05 55.09736 12.47202 8935 ft 241 kts 348°
2026-05-06 18:05 55.11314 12.46550 8898 ft 231 kts 349°
2026-05-06 18:05 55.12892 12.46150 8615 ft 230 kts 354°
2026-05-06 18:06 55.14470 12.45711 8264 ft 232 kts 353°
2026-05-06 18:06 55.16102 12.45318 7937 ft 238 kts 354°
2026-05-06 18:06 55.17724 12.44756 7950 ft 237 kts 348°
2026-05-06 18:06 55.19323 12.44159 7947 ft 230 kts 350°
2026-05-06 18:07 55.20892 12.43624 7964 ft 232 kts 351°
2026-05-06 18:07 55.22569 12.43070 7991 ft 258 kts 351°
2026-05-06 18:07 55.24352 12.42493 7968 ft 262 kts 351°
2026-05-06 18:07 55.26149 12.41906 7941 ft 261 kts 351°
2026-05-06 18:08 55.27925 12.41327 7679 ft 258 kts 351°
2026-05-06 18:08 55.29693 12.40753 7488 ft 254 kts 351°
2026-05-06 18:08 55.31408 12.40203 7120 ft 252 kts 351°
2026-05-06 18:08 55.33150 12.39634 6568 ft 257 kts 351°
2026-05-06 18:09 55.34909 12.39062 6130 ft 257 kts 351°
2026-05-06 18:09 55.36660 12.38492 5760 ft 255 kts 351°
2026-05-06 18:09 55.38393 12.37917 5139 ft 260 kts 351°
2026-05-06 18:09 55.40186 12.37344 4640 ft 262 kts 351°
2026-05-06 18:10 55.41971 12.36764 4155 ft 260 kts 353°
2026-05-06 18:10 55.43738 12.36916 3904 ft 248 kts 22°
2026-05-06 18:10 55.45152 12.38493 3636 ft 236 kts 42°
2026-05-06 18:10 55.46357 12.40353 3337 ft 225 kts 43°
2026-05-06 18:11 55.47503 12.42152 3038 ft 216 kts 43°
2026-05-06 18:11 55.48250 12.43319 2842 ft 210 kts 43°
2026-05-06 18:11 55.49668 12.45520 2495 ft 200 kts 44°
2026-05-06 18:11 55.50689 12.47103 2235 ft 191 kts 44°
2026-05-06 18:12 55.51662 12.48616 1989 ft 183 kts 44°
2026-05-06 18:12 55.52614 12.50099 1746 ft 181 kts 44°
2026-05-06 18:12 55.53533 12.51526 1502 ft 169 kts 44°
2026-05-06 18:12 55.54377 12.52834 1278 ft 156 kts 43°
2026-05-06 18:13 55.54910 12.53659 1154 ft 151 kts 45°
2026-05-06 18:13 55.55697 12.54880 938 ft 149 kts 44°
2026-05-06 18:13 55.56493 12.56084 810 ft 153 kts 46°
2026-05-06 18:13 55.57280 12.57341 591 ft 152 kts 44°
2026-05-06 18:14 55.58326 12.58945 294 ft 147 kts 45°
2026-05-06 18:14 55.58843 12.59760 150 ft 146 kts 43°
2026-05-06 18:14 55.59602 12.60936 24 ft 138 kts 43°
2026-05-06 18:14 55.60249 12.61937 17 ft 104 kts 40°
2026-05-06 18:15 55.60677 12.62609 20 ft 61 kts 41°
2026-05-06 18:15 55.60919 12.62988 17 ft 42 kts 41°
2026-05-06 18:15 55.61110 12.63285 19 ft 18 kts 41°
2026-05-06 18:15 55.61227 12.63323 19 ft 18 kts 358°
2026-05-06 18:16 55.61357 12.63310 16 ft 19 kts
2026-05-06 18:16 55.61457 12.63436 16 ft 12 kts 41°
2026-05-06 18:16 55.61461 12.63442 16 ft 0 kts 42°
2026-05-06 18:17 55.61473 12.63461 16 ft 7 kts 42°
2026-05-06 18:18 55.61517 12.63529 16 ft 9 kts 41°
2026-05-06 18:18 55.61575 12.63620 16 ft 17 kts 41°
2026-05-06 18:18 55.61687 12.63794 16 ft 23 kts 41°
2026-05-06 18:18 55.61807 12.63979 16 ft 22 kts 41°
2026-05-06 18:19 55.61935 12.64127 16 ft 22 kts 25°
2026-05-06 18:19 55.62070 12.64240 16 ft 22 kts 26°
2026-05-06 18:19 55.62226 12.64376 14 ft 26 kts 35°
2026-05-06 18:19 55.62307 12.64631 16 ft 19 kts 51°
2026-05-06 18:20 55.62430 12.64674 16 ft 19 kts 355°
2026-05-06 18:20 55.62535 12.64654 16 ft 10 kts 358°
2026-05-06 18:20 55.62591 12.64654 16 ft 6 kts
2026-05-06 18:20 55.62620 12.64659 16 ft 1 kts
2026-05-06 18:21 55.62637 12.64617 16 ft 5 kts 286°
2026-05-06 18:21 55.62642 12.64583 16 ft 2 kts 282°
2026-05-06 18:21 55.62643 12.64571 16 ft 0 kts 282°